Location: Gisborne
(38.6530°S, 178.0040°E)
Time: 18:26:37
(UTC+13:00)

Cosmos 1745 Rocket - Pass Details

Date: 24 January 2019
Orbit: 953 x 998 km, 83.0° (Epoch: 17 October)

Event Time Altitude Azimuth Distance (km) Brightness Sun altitude
Exits shadow 23:04:17 25° 335° (NNW) 1,894 5.2 -24.0°
Maximum altitude 23:08:05 63° 261° (W) 1,110 4.4 -24.4°
Drops below altitude 10° 23:14:27 10° 180° (S) 2,780 7.1 -25.1°
Sets 23:17:01 0° 176° (S) 3,730 7.9 -25.3°
